FW2552 Weather Reports


Display with metric or nautical units.
time (UTC)temp
F
wind
direction
speed
MPH
gust
MPH
rain 1hr
in
rain 24hr
in
rain mn
in
humidity
%
barometer
mb
20260505025203 71 149 9.0 12.0 0.00 0.00 0.00 52 1008.3
20260505024204 71 138 7.0 16.0 0.00 0.00 0.00 51 1008.1
20260505023204 71 117 5.0 16.0 0.00 0.00 0.00 51 1007.8
20260505022704 71 238 7.0 18.0 0.00 0.00 0.00 50 1008.0
20260505022203 71 172 3.0 12.0 0.00 0.00 0.00 50 1007.7
20260505021704 72 38 4.0 16.0 0.00 0.00 0.00 50 1007.8
20260505020703 72 116 6.0 14.0 0.00 0.00 0.00 50 1007.5
20260505020204 72 108 5.0 15.0 0.00 0.00 0.00 49 1007.6
20260505015704 72 118 6.0 15.0 0.00 0.00 0.00 48 1007.5
20260505015204 72 124 9.0 15.0 0.00 0.00 0.00 48 1007.4
20260505014703 73 117 6.0 13.0 0.00 0.00 0.00 48 1007.4
20260505014203 73 318 6.0 15.0 0.00 0.00 0.00 47 1007.3
20260505013704 73 123 5.0 15.0 0.00 0.00 0.00 46 1007.4
20260505012703 74 216 3.0 9.0 0.00 0.00 0.00 45 1007.3
20260505012204 74 274 5.0 13.0 0.00 0.00 0.00 45 1007.2
20260505011704 74 227 5.0 10.0 0.00 0.00 0.00 45 1007.2
20260505011203 74 83 4.0 10.0 0.00 0.00 0.00 44 1007.1
20260505010703 74 355 5.0 10.0 0.00 0.00 0.00 45 1007.2
20260505010203 75 179 4.0 18.0 0.00 0.00 0.00 44 1007.0
20260505005704 75 133 5.0 18.0 0.00 0.00 0.00 44 1006.8
20260505005203 75 115 4.0 13.0 0.00 0.00 0.00 44 1007.0
20260505004704 75 151 6.0 18.0 0.00 0.00 0.00 44 1006.9
20260505004203 76 134 5.0 20.0 0.00 0.00 0.00 44 1006.9
20260505003704 76 148 11.0 20.0 0.00 0.00 0.00 44 1007.0
20260505003204 76 119 9.0 17.0 0.00 0.00 0.00 44 1007.0
20260505002703 76 109 5.0 13.0 0.00 0.00 0.00 44 1007.0
20260505002204 77 127 6.0 14.0 0.00 0.00 0.00 43 1007.3
20260505001703 77 56 2.0 13.0 0.00 0.00 0.00 42 1007.1
20260505001203 78 237 5.0 17.0 0.00 0.00 0.00 42 1007.1
20260504235703 78 319 6.0 15.0 0.00 0.00 0.00 42 1007.3
20260504235204 78 191 2.0 14.0 0.00 0.00 0.00 42 1007.3
20260504234703 78 76 4.0 13.0 0.00 0.00 0.00 41 1007.3
20260504233204 80 120 5.0 21.0 0.00 0.00 0.00 39 1007.4
20260504232703 80 124 8.0 18.0 0.00 0.00 0.00 39 1007.6
20260504232204 80 193 7.0 12.0 0.00 0.00 0.00 39 1007.5
20260504231704 80 181 7.0 18.0 0.00 0.00 0.00 38 1007.7
20260504231203 80 80 4.0 21.0 0.00 0.00 0.00 39 1007.6
20260504230704 80 211 5.0 21.0 0.00 0.00 0.00 38 1007.7
20260504230204 80 173 2.0 18.0 0.00 0.00 0.00 38 1007.7
20260504225703 79 145 11.0 18.0 0.00 0.00 0.00 39 1007.6
20260504225204 79 38 6.0 13.0 0.00 0.00 0.00 39 1007.5
20260504224203 80 175 6.0 22.0 0.00 0.00 0.00 39 1007.9
20260504223704 81 136 5.0 24.0 0.00 0.00 0.00 39 1007.8
20260504223203 81 176 12.0 24.0 0.00 0.00 0.00 37 1007.7
20260504222703 81 290 8.0 17.0 0.00 0.00 0.00 38 1007.9
20260504221703 82 286 9.0 21.0 0.00 0.00 0.00 37 1008.0
20260504221204 82 125 4.0 20.0 0.00 0.00 0.00 36 1007.9
20260504220703 82 96 3.0 15.0 0.00 0.00 0.00 38 1008.0
20260504220203 82 240 7.0 20.0 0.00 0.00 0.00 37 1007.9
20260504215203 81 150 5.0 21.0 0.00 0.00 0.00 38 1008.1
20260504214704 81 162 9.0 22.0 0.00 0.00 0.00 38 1007.9
20260504214203 81 178 6.0 31.0 0.00 0.00 0.00 37 1008.0
20260504213703 81 171 5.0 31.0 0.00 0.00 0.00 38 1008.0
20260504212703 82 84 6.0 22.0 0.00 0.00 0.00 37 1008.1
20260504212204 81 184 6.0 16.0 0.00 0.00 0.00 36 1007.9
20260504211703 81 196 7.0 25.0 0.00 0.00 0.00 38 1007.9
20260504211204 81 148 8.0 29.0 0.00 0.00 0.00 36 1008.0
20260504210704 82 30 6.0 22.0 0.00 0.00 0.00 36 1008.1
20260504210204 82 323 8.0 24.0 0.00 0.00 0.00 36 1008.0
20260504205703 82 301 9.0 25.0 0.00 0.00 0.00 38 1008.1
20260504205204 82 144 6.0 25.0 0.00 0.00 0.00 37 1008.2
20260504204703 82 181 7.0 23.0 0.00 0.00 0.00 37 1008.2
20260504204203 82 138 7.0 23.0 0.00 0.00 0.00 35 1008.2
20260504203704 82 291 9.0 30.0 0.00 0.00 0.00 36 1008.5
20260504203203 82 110 9.0 25.0 0.00 0.00 0.00 35 1008.6
20260504202703 82 187 8.0 22.0 0.00 0.00 0.00 38 1008.5
20260504201704 82 170 12.0 25.0 0.00 0.00 0.00 37 1008.5
20260504201203 82 203 9.0 33.0 0.00 0.00 0.00 37 1008.6
20260504200703 81 259 6.0 21.0 0.00 0.00 0.00 39 1008.5
20260504200204 81 315 3.0 24.0 0.00 0.00 0.00 38 1008.5
20260504195703 81 173 11.0 24.0 0.00 0.00 0.00 37 1008.6
20260504195204 81 275 6.0 23.0 0.00 0.00 0.00 37 1008.6
20260504194204 81 139 9.0 25.0 0.00 0.00 0.00 39 1008.7
20260504193703 80 135 7.0 29.0 0.00 0.00 0.00 39 1008.8
20260504192703 81 209 9.0 18.0 0.00 0.00 0.00 39 1009.1
20260504191203 81 158 10.0 21.0 0.00 0.00 0.00 38 1009.3
20260504190704 80 339 5.0 21.0 0.00 0.00 0.00 40 1009.3
20260504190203 80 164 9.0 24.0 0.00 0.00 0.00 38 1009.3
20260504185704 80 166 7.0 24.0 0.00 0.00 0.00 39 1009.3
20260504185204 80 187 9.0 24.0 0.00 0.00 0.00 38 1009.4
20260504184703 79 241 10.0 24.0 0.00 0.00 0.00 39 1009.3
20260504184204 79 164 7.0 24.0 0.00 0.00 0.00 40 1009.4
20260504183703 78 148 10.0 20.0 0.00 0.00 0.00 39 1009.0
20260504183204 77 119 4.0 21.0 0.00 0.00 0.00 41 1009.1
20260504182204 78 265 5.0 20.0 0.00 0.00 0.00 41 1009.2
20260504181703 78 207 3.0 21.0 0.00 0.00 0.00 40 1009.4
20260504181203 77 151 9.0 22.0 0.00 0.00 0.00 41 1009.3
20260504180704 78 277 12.0 25.0 0.00 0.00 0.00 39 1009.3
20260504175703 78 255 10.0 25.0 0.00 0.00 0.00 39 1009.4
20260504175203 78 285 12.0 22.0 0.00 0.00 0.00 40 1009.3
20260504174703 79 19 8.0 22.0 0.00 0.00 0.00 39 1009.4
20260504174203 79 150 9.0 20.0 0.00 0.00 0.00 41 1009.1
20260504173703 78 133 5.0 20.0 0.00 0.00 0.00 40 1009.1
20260504173203 78 333 5.0 25.0 0.00 0.00 0.00 39 1009.2
20260504172703 78 158 7.0 25.0 0.00 0.00 0.00 40 1009.3
20260504172203 78 304 6.0 24.0 0.00 0.00 0.00 41 1009.3
20260504171703 77 163 13.0 32.0 0.00 0.00 0.00 40 1009.1
20260504171204 78 247 7.0 32.0 0.00 0.00 0.00 39 1009.2
20260504170703 78 340 9.0 24.0 0.00 0.00 0.00 39 1009.2
20260504170204 77 36 7.0 26.0 0.00 0.00 0.00 41 1008.9
20260504160203 75 296 10.0 28.0 0.00 0.00 0.00 41 1009.3
20260504150704 71 285 9.0 21.0 0.00 0.00 0.00 46 1009.4
20260504150204 70 51 3.0 24.0 0.00 0.00 0.00 47 1009.4
20260504141204 69 271 7.0 22.0 0.00 0.00 0.00 48 1009.8
20260504130703 66 257 5.0 16.0 0.00 0.00 0.00 50 1009.8
20260504130203 65 138 6.0 14.0 0.00 0.00 0.00 51 1009.6
20260504120204 62 282 6.0 12.0 0.00 0.00 0.00 53 1009.6
20260504110703 63 175 3.0 20.0 0.00 0.00 0.00 53 1009.5
20260504110203 63 13 4.0 13.0 0.00 0.00 0.00 53 1009.6
20260504100203 63 150 3.0 12.0 0.00 0.00 0.00 52 1010.1
20260504081704 64 147 7.0 16.0 0.00 0.00 0.00 53 1010.2
20260504081203 64 175 5.0 17.0 0.00 0.00 0.00 53 1010.3
20260504080703 64 262 6.0 17.0 0.00 0.00 0.00 52 1010.2
20260504080204 64 222 6.0 16.0 0.00 0.00 0.00 53 1010.5
20260504070204 66 44 6.0 13.0 0.00 0.00 0.00 50 1010.8
20260504060203 65 141 5.0 14.0 0.00 0.00 0.00 50 1011.3
20260504050703 65 87 9.0 18.0 0.00 0.00 0.00 50 1011.5
20260504050203 65 140 10.0 23.0 0.00 0.00 0.00 50 1011.7
20260504045704 65 152 9.0 23.0 0.00 0.00 0.00 50 1011.6
20260504045203 66 151 9.0 22.0 0.00 0.00 0.00 49 1011.9
20260504044703 66 178 10.0 22.0 0.00 0.00 0.00 49 1011.8
20260504044204 66 144 12.0 21.0 0.00 0.00 0.00 49 1012.0
20260504043703 66 121 6.0 21.0 0.00 0.00 0.00 49 1011.8
20260504043204 66 106 8.0 15.0 0.00 0.00 0.00 48 1012.1
20260504042703 66 131 6.0 21.0 0.00 0.00 0.00 48 1011.8
20260504042204 66 83 4.0 21.0 0.00 0.00 0.00 48 1012.0
20260504041704 66 118 5.0 17.0 0.00 0.00 0.00 48 1012.0
20260504041203 66 103 6.0 17.0 0.00 0.00 0.00 47 1012.0
20260504040703 66 145 6.0 15.0 0.00 0.00 0.00 47 1012.0
20260504040204 66 74 5.0 14.0 0.00 0.00 0.00 48 1012.2
20260504035704 66 105 5.0 15.0 0.00 0.00 0.00 47 1012.1
20260504035204 66 110 5.0 15.0 0.00 0.00 0.00 47 1012.2
20260504034703 66 149 6.0 13.0 0.00 0.00 0.00 47 1012.3
20260504034203 66 29 8.0 13.0 0.00 0.00 0.00 47 1012.5
20260504033203 67 116 8.0 18.0 0.00 0.00 0.00 46 1012.4
20260504032703 67 239 5.0 18.0 0.00 0.00 0.00 46 1012.3
20260504031203 67 125 6.0 21.0 0.00 0.00 0.00 44 1012.6
20260504030703 68 151 6.0 17.0 0.00 0.00 0.00 44 1012.6
20260504030203 68 140 5.0 17.0 0.00 0.00 0.00 44 1012.7